When you browse on this site, cookies collect data to enhance your experience and personalize the content and advertising you see.
Visit our Privacy Policy to learn more. By continuing to use the site, you agree to this use of cookies and data.
  • In Germany
  • List of Countries
  • For 7 days
  • Water Temperature
  • Weather Map
  • Weather Widgets
  • user-avatar
    Login

    Hourly Weather Hrazdan

    Today, 21 January, Tuesday

    Time Temperature Precipitation Wind Pressure Humidity
    00:00 -10°C° 0 mm 1 mps 610 mmHg 78%
    01:00 -10°C° 0 mm 1 mps 610 mmHg 77%
    02:00 -10°C° 0 mm 1 mps 610 mmHg 77%
    03:00 -10°C° 0 mm 1 mps 610 mmHg 76%
    04:00 -10°C° 0 mm 1 mps 610 mmHg 75%
    05:00 -11°C° 0 mm 1 mps 610 mmHg 74%
    06:00 -11°C° 0 mm 1 mps 609 mmHg 73%
    07:00 -10°C° 0 mm 1 mps 610 mmHg 73%
    08:00 -9°C° 0 mm 1 mps 611 mmHg 73%
    09:00 -7°C° 0 mm 1 mps 611 mmHg 76%
    10:00 -6°C° 0 mm 1 mps 611 mmHg 74%
    11:00 -4°C° 0 mm 1 mps 612 mmHg 73%
    12:00 -4°C° 0 mm 0 mps 612 mmHg 72%
    13:00 -3°C° 0 mm 1 mps 612 mmHg 75%
    14:00 -3°C° 0 mm 1 mps 611 mmHg 77%
    15:00 -3°C° 0 mm 1 mps 611 mmHg 80%
    16:00 -4°C° 0 mm 1 mps 610 mmHg 79%
    17:00 -7°C° 0 mm 1 mps 610 mmHg 78%
    18:00 -9°C° 0 mm 1 mps 610 mmHg 78%
    19:00 -9°C° 0 mm 1 mps 610 mmHg 77%
    20:00 -10°C° 0 mm 1 mps 610 mmHg 76%
    21:00 -10°C° 0 mm 1 mps 610 mmHg 76%
    22:00 -10°C° 0 mm 1 mps 610 mmHg 75%
    23:00 -10°C° 0 mm 1 mps 610 mmHg 75%

    Tomorrow, 22 January, Wednesday

    Time Temperature Precipitation Wind Pressure Humidity
    00:00 -11°C° 0 mm 1 mps 610 mmHg 74%
    01:00 -11°C° 0 mm 1 mps 610 mmHg 74%
    02:00 -11°C° 0 mm 1 mps 610 mmHg 73%
    03:00 -11°C° 0 mm 1 mps 610 mmHg 73%
    04:00 -11°C° 0 mm 1 mps 610 mmHg 73%
    05:00 -12°C° 0 mm 1 mps 610 mmHg 74%
    06:00 -12°C° 0 mm 1 mps 609 mmHg 74%
    07:00 -11°C° 0 mm 1 mps 610 mmHg 75%
    08:00 -10°C° 0 mm 1 mps 610 mmHg 77%
    09:00 -9°C° 0 mm 1 mps 611 mmHg 78%
    10:00 -9°C° 0 mm 2 mps 611 mmHg 78%
    11:00 -8°C° 0 mm 2 mps 610 mmHg 79%
    12:00 -7°C° 0 mm 2 mps 610 mmHg 79%
    13:00 -7°C° 0 mm 2 mps 610 mmHg 80%
    14:00 -7°C° 0 mm 2 mps 610 mmHg 81%
    15:00 -7°C° 0 mm 2 mps 609 mmHg 81%
    16:00 -8°C° 0 mm 2 mps 609 mmHg 80%
    17:00 -9°C° 0 mm 2 mps 608 mmHg 79%
    18:00 -10°C° 0 mm 2 mps 608 mmHg 78%
    19:00 -12°C° 0 mm 2 mps 608 mmHg 77%
    20:00 -12°C° 0 mm 2 mps 608 mmHg 76%
    21:00 -12°C° 0 mm 2 mps 607 mmHg 75%
    22:00 -13°C° 0 mm 2 mps 607 mmHg 76%
    23:00 -13°C° 0 mm 2 mps 606 mmHg 76%

    Day after tomorrow, 23 January, Thursday

    Time Temperature Precipitation Wind Pressure Humidity
    00:00 -13°C° 0 mm 2 mps 606 mmHg 76%
    01:00 -14°C° 0 mm 2 mps 606 mmHg 77%
    02:00 -14°C° 0 mm 2 mps 605 mmHg 79%
    03:00 -14°C° 0 mm 2 mps 605 mmHg 80%
    04:00 -14°C° 0 mm 2 mps 604 mmHg 81%
    05:00 -14°C° 0 mm 2 mps 604 mmHg 81%
    06:00 -14°C° 0 mm 2 mps 603 mmHg 82%
    07:00 -13°C° 0 mm 2 mps 603 mmHg 82%
    08:00 -12°C° 0 mm 2 mps 603 mmHg 82%
    09:00 -12°C° 0 mm 2 mps 604 mmHg 82%
    10:00 -12°C° 0 mm 3 mps 603 mmHg 82%
    11:00 -10°C° 0 mm 3 mps 603 mmHg 81%
    12:00 -9°C° 0 mm 3 mps 603 mmHg 80%
    13:00 -9°C° 0 mm 3 mps 603 mmHg 80%
    14:00 -9°C° 0 mm 3 mps 602 mmHg 80%
    15:00 -9°C° 0 mm 3 mps 602 mmHg 80%
    16:00 -8°C° 0 mm 2 mps 602 mmHg 83%
    17:00 -9°C° 0 mm 2 mps 602 mmHg 86%
    18:00 -10°C° 0 mm 2 mps 602 mmHg 90%
    19:00 -10°C° 0.1 mm 2 mps 602 mmHg 90%
    20:00 -10°C° 0.1 mm 2 mps 602 mmHg 91%
    21:00 -10°C° 0.1 mm 2 mps 603 mmHg 92%
    22:00 -10°C° 0.2 mm 2 mps 603 mmHg 92%
    23:00 -10°C° 0.2 mm 2 mps 603 mmHg 92%

    24 January, Friday

    Time Temperature Precipitation Wind Pressure Humidity
    00:00 -12°C° 0.2 mm 2 mps 603 mmHg 92%
    01:00 -10°C° 0 mm 1 mps 603 mmHg 92%
    02:00 -10°C° 0 mm 1 mps 603 mmHg 92%
    03:00 -10°C° 0 mm 1 mps 603 mmHg 91%
    04:00 -10°C° 0 mm 1 mps 603 mmHg 90%
    05:00 -11°C° 0 mm 1 mps 603 mmHg 88%
    06:00 -11°C° 0 mm 1 mps 603 mmHg 87%
    07:00 -11°C° 0 mm 1 mps 604 mmHg 86%
    08:00 -10°C° 0 mm 1 mps 604 mmHg 85%
    09:00 -10°C° 0 mm 1 mps 605 mmHg 84%
    10:00 -10°C° 0 mm 2 mps 606 mmHg 78%
    11:00 -9°C° 0 mm 2 mps 606 mmHg 73%
    12:00 -9°C° 0 mm 3 mps 606 mmHg 67%
    13:00 -9°C° 0 mm 3 mps 606 mmHg 67%
    14:00 -10°C° 0 mm 3 mps 607 mmHg 67%
    15:00 -10°C° 0 mm 3 mps 607 mmHg 67%
    16:00 -12°C° 0 mm 3 mps 607 mmHg 68%
    17:00 -14°C° 0 mm 3 mps 607 mmHg 69%
    18:00 -14°C° 0 mm 2 mps 607 mmHg 71%
    19:00 -15°C° 0 mm 2 mps 607 mmHg 71%
    20:00 -15°C° 0 mm 2 mps 608 mmHg 71%
    21:00 -16°C° 0 mm 2 mps 608 mmHg 70%
    22:00 -16°C° 0 mm 2 mps 609 mmHg 71%
    23:00 -17°C° 0 mm 2 mps 609 mmHg 71%

    25 January, Saturday

    Time Temperature Precipitation Wind Pressure Humidity
    00:00 -17°C° 0 mm 2 mps 610 mmHg 71%
    01:00 -17°C° 0 mm 2 mps 610 mmHg 72%
    02:00 -18°C° 0 mm 2 mps 610 mmHg 72%
    03:00 -18°C° 0 mm 2 mps 610 mmHg 73%
    04:00 -18°C° 0 mm 2 mps 611 mmHg 73%
    05:00 -18°C° 0 mm 2 mps 611 mmHg 72%
    06:00 -18°C° 0 mm 2 mps 611 mmHg 71%
    07:00 -15°C° 0 mm 1 mps 612 mmHg 69%
    08:00 -14°C° 0 mm 1 mps 613 mmHg 66%
    09:00 -13°C° 0 mm 1 mps 614 mmHg 64%
    10:00 -11°C° 0 mm 1 mps 614 mmHg 62%
    11:00 -10°C° 0 mm 1 mps 615 mmHg 60%
    12:00 -8°C° 0 mm 0 mps 615 mmHg 58%
    13:00 -8°C° 0 mm 0 mps 615 mmHg 63%
    14:00 -8°C° 0 mm 0 mps 615 mmHg 68%
    15:00 -8°C° 0 mm 1 mps 614 mmHg 72%
    16:00 -10°C° 0 mm 1 mps 614 mmHg 69%
    17:00 -11°C° 0 mm 1 mps 613 mmHg 65%
    18:00 -13°C° 0 mm 1 mps 612 mmHg 61%
    19:00 -15°C° 0 mm 2 mps 613 mmHg 58%
    20:00 -15°C° 0 mm 2 mps 613 mmHg 55%
    21:00 -15°C° 0 mm 2 mps 613 mmHg 52%
    22:00 -15°C° 0 mm 2 mps 613 mmHg 52%
    23:00 -15°C° 0 mm 2 mps 613 mmHg 51%

    26 January, Sunday

    Time Temperature Precipitation Wind Pressure Humidity
    00:00 -15°C° 0 mm 2 mps 613 mmHg 51%
    01:00 -15°C° 0 mm 2 mps 612 mmHg 50%
    02:00 -15°C° 0 mm 2 mps 612 mmHg 50%
    03:00 -15°C° 0 mm 2 mps 612 mmHg 50%
    04:00 -15°C° 0 mm 2 mps 612 mmHg 51%
    05:00 -15°C° 0 mm 2 mps 612 mmHg 52%
    06:00 -14°C° 0 mm 2 mps 612 mmHg 54%
    07:00 -13°C° 0 mm 2 mps 613 mmHg 57%
    08:00 -12°C° 0 mm 2 mps 613 mmHg 61%
    09:00 -10°C° 0 mm 2 mps 614 mmHg 64%
    10:00 -9°C° 0 mm 2 mps 614 mmHg 65%
    11:00 -8°C° 0 mm 2 mps 614 mmHg 67%
    12:00 -6°C° 0 mm 2 mps 614 mmHg 68%
    13:00 -6°C° 0 mm 2 mps 614 mmHg 70%
    14:00 -6°C° 0 mm 2 mps 614 mmHg 72%
    15:00 -6°C° 0 mm 2 mps 613 mmHg 74%
    16:00 -8°C° 0 mm 2 mps 613 mmHg 71%
    17:00 -9°C° 0 mm 2 mps 612 mmHg 67%
    18:00 -10°C° 0 mm 2 mps 612 mmHg 63%
    19:00 -10°C° 0 mm 2 mps 612 mmHg 62%
    20:00 -10°C° 0 mm 2 mps 612 mmHg 61%
    21:00 -10°C° 0 mm 2 mps 611 mmHg 59%
    22:00 -10°C° 0 mm 2 mps 611 mmHg 59%
    23:00 -10°C° 0 mm 2 mps 611 mmHg 59%
    Show more